QPF
0.00 0.00 0.00 0.00 0.00 0.00 0.00 0.00 0.00 0.00 0.00 0.00 0.00 0.00 0.00 0.00 0.00 0.00 0.00 0.00 0.00 0.00 0.00 0.00 0.00 0.01 0.01 0.01 0.00 0.01 0.01 0.00 0.01 0.01 0.01 0.01 0.02 0.02 0.02 0.01 0.01 0.02 0.02
0.00 0.00 0.00 0.00 0.00 0.00 0.00 0.00 0.00 0.00 0.00 0.00 0.00 0.00 0.00 0.00 0.00 0.00 0.00 0.00 0.00 0.00 0.00 0.00 0.00 0.00 0.01 0.00 0.01 0.02 0.02 0.01 0.01 0.02 0.01 0.02 0.02 0.02 0.02 0.01 0.01 0.02 0.02
0.00 0.00 0.00 0.00 0.00 0.00 0.00 0.00 0.00 0.00 0.00 0.00 0.00 0.00 0.00 0.00 0.00 0.00 0.00 0.00 0.00 0.00 0.00 0.00 0.00 0.00 0.00 0.01 0.01 0.01 0.02 0.01 0.01 0.01 0.02 0.02 0.02 0.02 0.02 0.02 0.01 0.02 0.03
0.00 0.00 0.00 0.00 0.00 0.00 0.00 0.00 0.00 0.00 0.00 0.00 0.00 0.00 0.00 0.00 0.00 0.00 0.00 0.00 0.00 0.00 0.00 0.00 0.00 0.00 0.00 0.00 0.01 0.00 0.01 0.01 0.01 0.01 0.01 0.01 0.01 0.01 0.02 0.02 0.03 0.02 0.03
0.00 0.00 0.00 0.00 0.00 0.00 0.00 0.00 0.00 0.00 0.00 0.00 0.00 0.00 0.00 0.00 0.00 0.00 0.00 0.00 0.00 0.00 0.00 0.00 0.00 0.00 0.00 0.00 0.00 0.00 0.00 0.01 0.01 0.01 0.01 0.00 0.01 0.03 0.04 0.03 0.03 0.02 0.02
0.00 0.00 0.00 0.00 0.00 0.00 0.00 0.00 0.00 0.00 0.00 0.00 0.00 0.00 0.00 0.00 0.00 0.00 0.00 0.00 0.00 0.00 0.00 0.00 0.00 0.00 0.00 0.00 0.00 0.00 0.00 0.00 0.00 0.00 0.00 0.01 0.02 0.03 0.02 0.02 0.02 0.02 0.02
0.00 0.00 0.00 0.00 0.00 0.01 0.01 0.01 0.01 0.00 0.00 0.00 0.00 0.00 0.00 0.00 0.00 0.00 0.00 0.00 0.00 0.00 0.00 0.00 0.00 0.00 0.00 0.00 0.00 0.00 0.00 0.01 0.01 0.01 0.01 0.02 0.03 0.02 0.01 0.01 0.01 0.02 0.02
0.00 0.00 0.00 0.00 0.00 0.00 0.01 0.01 0.01 0.00 0.00 0.00 0.00 0.00 0.00 0.00 0.00 0.00 0.00 0.00 0.00 0.00 0.00 0.00 0.00 0.00 0.00 0.00 0.00 0.01 0.01 0.01 0.01 0.01 0.01 0.01 0.01 0.01 0.01 0.01 0.01 0.01 0.02
0.00 0.00 0.00 0.00 0.00 0.00 0.01 0.01 0.01 0.01 0.01 0.00 0.00 0.00 0.00 0.00 0.00 0.00 0.00 0.00 0.00 0.00 0.00 0.00 0.00 0.00 0.00 0.00 0.00 0.01 0.01 0.01 0.01 0.01 0.01 0.00 0.00 0.01 0.01 0.01 0.01 0.01 0.01
0.00 0.00 0.00 0.01 0.01 0.01 0.01 0.01 0.02 0.02 0.02 0.01 0.00 0.00 0.00 0.00 0.00 0.00 0.00 0.00 0.00 0.00 0.00 0.00 0.00 0.00 0.00 0.00 0.00 0.01 0.01 0.01 0.02 0.01 0.01 0.00 0.00 0.01 0.01 0.01 0.01 0.02 0.02
0.00 0.00 0.00 0.00 0.01 0.01 0.01 0.01 0.02 0.03 0.03 0.01 0.01 0.00 0.00 0.00 0.00 0.00 0.00 0.00 0.00 0.00 0.00 0.00 0.00 0.00 0.00 0.00 0.00 0.01 0.02 0.01 0.02 0.02 0.01 0.01 0.01 0.00 0.00 0.00 0.01 0.01 0.02
0.00 0.00 0.00 0.00 0.01 0.01 0.01 0.02 0.02 0.03 0.02 0.01 0.01 0.00 0.00 0.00 0.00 0.00 0.00 0.00 0.00 0.00 0.00 0.00 0.00 0.00 0.00 0.00 0.00 0.01 0.02 0.02 0.02 0.02 0.01 0.00 0.00 0.00 0.00 0.00 0.00 0.00 0.01
0.00 0.00 0.00 0.00 0.00 0.00 0.00 0.00 0.00 0.00 0.00 0.00 0.00 0.00 0.00 0.00 0.00 0.00 0.00 0.00 0.00 0.00 0.00 0.00 0.00 0.00 0.00 0.00 0.00 0.01 0.01 0.02 0.02 0.01 0.00 0.00 0.00 0.00 0.00 0.00 0.00 0.00 0.00
0.00 0.00 0.00 0.00 0.00 0.00 0.00 0.00 0.00 0.00 0.00 0.00 0.00 0.00 0.00 0.00 0.00 0.00 0.00 0.00 0.00 0.00 0.00 0.00 0.00 0.00 0.00 0.00 0.00 0.00 0.01 0.01 0.00 0.00 0.00 0.00 0.00 0.00 0.00 0.00 0.00 0.00 0.00
0.00 0.00 0.00 0.00 0.00 0.00 0.00 0.00 0.00 0.00 0.00 0.00 0.00 0.00 0.00 0.00 0.00 0.00 0.00 0.00 0.00 0.00 0.00 0.00 0.00 0.00 0.00 0.00 0.00 0.00 0.01 0.00 0.00 0.00 0.00 0.00 0.00 0.00 0.00 0.00 0.00 0.00 0.00
0.00 0.00 0.00 0.00 0.00 0.00 0.00 0.00 0.00 0.00 0.00 0.00 0.00 0.00 0.00 0.00 0.00 0.00 0.00 0.00 0.00 0.01 0.01 0.00 0.00 0.00 0.00 0.00 0.00 0.00 0.00 0.00 0.00 0.00 0.00 0.00 0.00 0.00 0.00 0.00 0.00 0.00 0.00
0.00 0.00 0.00 0.00 0.00 0.00 0.00 0.00 0.00 0.00 0.00 0.00 0.00 0.00 0.00 0.00 0.00 0.00 0.00 0.00 0.00 0.00 0.00 0.00 0.00 0.00 0.00 0.00 0.00 0.00 0.00 0.00 0.00 0.00 0.00 0.00 0.00 0.00 0.00 0.00 0.00 0.00 0.00
0.00 0.00 0.00 0.00 0.00 0.00 0.00 0.00 0.00 0.00 0.00 0.00 0.00 0.00 0.01 0.01 0.00 0.00 0.00 0.00 0.00 0.00 0.00 0.00 0.00 0.00 0.00 0.00 0.00 0.00 0.00 0.00 0.00 0.00 0.00 0.00 0.00 0.00 0.00 0.00 0.00 0.00 0.00
0.00 0.00 0.00 0.00 0.00 0.00 0.00 0.00 0.00 0.00 0.00 0.00 0.00 0.00 0.00 0.01 0.01 0.01 0.00 0.00 0.00 0.00 0.00 0.00 0.00 0.00 0.00 0.00 0.00 0.00 0.00 0.00 0.00 0.00 0.00 0.00 0.00 0.00 0.00 0.00 0.00 0.01 0.00
0.00 0.00 0.00 0.00 0.00 0.00 0.00 0.00 0.00 0.00 0.00 0.00 0.00 0.01 0.00 0.00 0.01 0.01 0.02 0.01 0.00 0.00 0.00 0.00 0.00 0.00 0.00 0.00 0.00 0.00 0.00 0.00 0.00 0.00 0.00 0.00 0.00 0.00 0.00 0.00 0.00 0.00 0.00
0.00 0.00 0.00 0.00 0.00 0.00 0.00 0.00 0.00 0.00 0.00 0.00 0.01 0.01 0.01 0.01 0.00 0.01 0.01 0.01 0.01 0.01 0.00 0.00 0.01 0.00 0.00 0.00 0.00 0.00 0.01 0.01 0.00 0.00 0.00 0.00 0.00 0.00 0.00 0.00 0.00 0.00 0.00
0.00 0.00 0.00 0.00 0.00 0.00 0.00 0.00 0.00 0.00 0.00 0.00 0.01 0.02 0.01 0.01 0.00 0.00 0.00 0.00 0.01 0.01 0.01 0.01 0.01 0.01 0.01 0.01 0.01 0.01 0.01 0.00 0.00 0.00 0.00 0.00 0.00 0.00 0.00 0.00 0.00 0.00 0.00
0.00 0.00 0.00 0.00 0.00 0.00 0.00 0.00 0.00 0.01 0.01 0.01 0.01 0.01 0.01 0.01 0.00 0.00 0.00 0.00 0.00 0.00 0.01 0.01 0.01 0.01 0.01 0.01 0.01 0.01 0.00 0.00 0.00 0.00 0.00 0.00 0.00 0.00 0.00 0.00 0.00 0.00 0.00
0.00 0.00 0.00 0.00 0.00 0.00 0.01 0.01 0.01 0.01 0.01 0.01 0.01 0.01 0.01 0.01 0.01 0.01 0.01 0.00 0.00 0.00 0.00 0.00 0.01 0.01 0.01 0.00 0.00 0.00 0.00 0.00 0.00 0.00 0.00 0.00 0.00 0.00 0.00 0.00 0.00 0.00 0.00
0.00 0.00 0.00 0.00 0.00 0.00 0.00 0.00 0.00 0.00 0.00 0.00 0.00 0.00 0.01 0.01 0.01 0.01 0.01 0.01 0.00 0.01 0.01 0.01 0.00 0.00 0.00 0.00 0.00 0.00 0.00 0.00 0.00 0.00 0.00 0.00 0.00 0.00 0.00 0.00 0.00 0.00 0.00
0.00 0.00 0.00 0.00 0.00 0.00 0.00 0.00 0.00 0.00 0.00 0.00 0.00 0.01 0.01 0.00 0.00 0.00 0.00 0.00 0.00 0.00 0.00 0.00 0.01 0.00 0.00 0.00 0.00 0.00 0.00 0.00 0.00 0.00 0.00 0.00 0.00 0.00 0.00 0.00 0.00 0.00 0.00
MSLP
1019.42 1019.50 1019.55 1019.58 1019.61 1019.65 1019.70 1019.79 1019.92 1020.08 1020.25 1020.41 1020.56 1020.66 1020.72 1020.73 1020.68 1020.60 1020.49 1020.37 1020.23 1020.08 1019.93 1019.79 1019.65 1019.52 1019.40 1019.32 1019.26 1019.24 1019.25 1019.30 1019.38 1019.48 1019.60 1019.71 1019.81 1019.88 1019.92 1019.90 1019.83 1019.70 1019.51
1019.36 1019.47 1019.58 1019.67 1019.75 1019.82 1019.90 1019.99 1020.11 1020.25 1020.41 1020.56 1020.70 1020.81 1020.89 1020.92 1020.92 1020.88 1020.81 1020.72 1020.62 1020.50 1020.38 1020.26 1020.12 1019.99 1019.86 1019.74 1019.65 1019.58 1019.54 1019.54 1019.58 1019.66 1019.77 1019.90 1020.03 1020.15 1020.23 1020.27 1020.26 1020.19 1020.05
1019.14 1019.27 1019.42 1019.57 1019.71 1019.83 1019.95 1020.07 1020.20 1020.34 1020.49 1020.64 1020.78 1020.91 1021.00 1021.06 1021.09 1021.09 1021.06 1021.02 1020.95 1020.88 1020.79 1020.69 1020.58 1020.45 1020.32 1020.18 1020.04 1019.93 1019.84 1019.78 1019.78 1019.81 1019.89 1020.01 1020.15 1020.28 1020.41 1020.50 1020.54 1020.53 1020.46
1018.76 1018.91 1019.09 1019.29 1019.49 1019.67 1019.84 1020.00 1020.16 1020.32 1020.49 1020.65 1020.80 1020.93 1021.05 1021.14 1021.20 1021.23 1021.24 1021.24 1021.22 1021.18 1021.13 1021.07 1020.98 1020.87 1020.75 1020.60 1020.46 1020.31 1020.18 1020.08 1020.01 1020.00 1020.03 1020.11 1020.22 1020.35 1020.48 1020.60 1020.68 1020.72 1020.71
1018.30 1018.44 1018.64 1018.88 1019.13 1019.38 1019.61 1019.83 1020.03 1020.22 1020.41 1020.59 1020.75 1020.91 1021.04 1021.15 1021.23 1021.30 1021.34 1021.37 1021.38 1021.38 1021.37 1021.34 1021.30 1021.22 1021.13 1021.01 1020.87 1020.72 1020.57 1020.43 1020.33 1020.26 1020.23 1020.25 1020.31 1020.40 1020.50 1020.61 1020.71 1020.78 1020.82
1017.86 1017.96 1018.17 1018.43 1018.72 1019.02 1019.31 1019.58 1019.84 1020.07 1020.28 1020.48 1020.67 1020.83 1020.98 1021.10 1021.20 1021.28 1021.34 1021.39 1021.43 1021.46 1021.48 1021.50 1021.49 1021.47 1021.42 1021.35 1021.25 1021.12 1020.98 1020.84 1020.70 1020.58 1020.49 1020.45 1020.44 1020.46 1020.52 1020.59 1020.67 1020.74 1020.81
1017.53 1017.60 1017.79 1018.05 1018.37 1018.70 1019.03 1019.34 1019.63 1019.90 1020.14 1020.35 1020.55 1020.72 1020.88 1021.00 1021.11 1021.19 1021.26 1021.32 1021.37 1021.42 1021.47 1021.52 1021.56 1021.60 1021.61 1021.60 1021.55 1021.47 1021.37 1021.23 1021.09 1020.94 1020.80 1020.69 1020.61 1020.56 1020.55 1020.56 1020.60 1020.66 1020.72
1017.41 1017.44 1017.59 1017.84 1018.14 1018.48 1018.82 1019.16 1019.47 1019.75 1020.00 1020.23 1020.43 1020.60 1020.75 1020.87 1020.97 1021.05 1021.11 1021.17 1021.22 1021.28 1021.35 1021.43 1021.52 1021.61 1021.68 1021.73 1021.75 1021.73 1021.67 1021.57 1021.44 1021.28 1021.12 1020.96 1020.82 1020.70 1020.62 1020.57 1020.56 1020.57 1020.61
1017.55 1017.53 1017.63 1017.83 1018.10 1018.41 1018.74 1019.07 1019.38 1019.66 1019.91 1020.13 1020.33 1020.49 1020.63 1020.74 1020.83 1020.89 1020.95 1020.99 1021.05 1021.11 1021.19 1021.29 1021.41 1021.53 1021.65 1021.76 1021.84 1021.88 1021.87 1021.81 1021.70 1021.55 1021.38 1021.20 1021.02 1020.86 1020.72 1020.63 1020.56 1020.54 1020.54
1017.96 1017.88 1017.92 1018.05 1018.26 1018.52 1018.81 1019.10 1019.39 1019.65 1019.89 1020.10 1020.28 1020.43 1020.55 1020.65 1020.72 1020.77 1020.81 1020.85 1020.90 1020.96 1021.04 1021.15 1021.28 1021.43 1021.58 1021.71 1021.83 1021.90 1021.93 1021.90 1021.82 1021.70 1021.54 1021.36 1021.18 1021.00 1020.85 1020.72 1020.62 1020.56 1020.52
1018.58 1018.45 1018.41 1018.47 1018.60 1018.79 1019.03 1019.28 1019.53 1019.76 1019.98 1020.17 1020.33 1020.46 1020.57 1020.65 1020.70 1020.74 1020.78 1020.81 1020.85 1020.91 1020.99 1021.09 1021.22 1021.36 1021.50 1021.64 1021.75 1021.83 1021.87 1021.86 1021.80 1021.70 1021.57 1021.42 1021.25 1021.09 1020.94 1020.82 1020.71 1020.62 1020.56
1019.34 1019.15 1019.05 1019.02 1019.08 1019.20 1019.38 1019.58 1019.80 1020.01 1020.21 1020.38 1020.52 1020.63 1020.72 1020.78 1020.82 1020.85 1020.88 1020.91 1020.95 1021.00 1021.07 1021.16 1021.26 1021.38 1021.48 1021.58 1021.66 1021.71 1021.73 1021.71 1021.65 1021.57 1021.46 1021.34 1021.22 1021.10 1020.98 1020.88 1020.78 1020.69 1020.61
1020.17 1019.94 1019.77 1019.68 1019.67 1019.73 1019.86 1020.03 1020.22 1020.41 1020.59 1020.75 1020.88 1020.98 1021.04 1021.08 1021.11 1021.13 1021.15 1021.17 1021.21 1021.25 1021.31 1021.38 1021.44 1021.51 1021.56 1021.59 1021.60 1021.58 1021.55 1021.49 1021.41 1021.33 1021.24 1021.15 1021.07 1021.00 1020.93 1020.86 1020.79 1020.71 1020.62
1021.01 1020.75 1020.54 1020.40 1020.35 1020.37 1020.46 1020.61 1020.80 1020.99 1021.16 1021.31 1021.43 1021.51 1021.55 1021.57 1021.57 1021.57 1021.58 1021.59 1021.61 1021.65 1021.69 1021.72 1021.74 1021.75 1021.72 1021.67 1021.59 1021.49 1021.37 1021.25 1021.13 1021.03 1020.94 1020.88 1020.83 1020.80 1020.77 1020.74 1020.69 1020.63 1020.54
1021.82 1021.57 1021.34 1021.18 1021.10 1021.10 1021.19 1021.34 1021.53 1021.72 1021.91 1022.06 1022.16 1022.22 1022.23 1022.22 1022.19 1022.16 1022.13 1022.12 1022.13 1022.15 1022.16 1022.16 1022.13 1022.07 1021.97 1021.83 1021.65 1021.46 1021.25 1021.05 1020.87 1020.73 1020.63 1020.57 1020.53 1020.52 1020.52 1020.51 1020.48 1020.41 1020.32
1022.61 1022.37 1022.15 1021.99 1021.91 1021.92 1022.02 1022.18 1022.38 1022.60 1022.79 1022.94 1023.03 1023.07 1023.05 1022.99 1022.92 1022.84 1022.77 1022.73 1022.70 1022.69 1022.67 1022.63 1022.56 1022.45 1022.27 1022.05 1021.79 1021.50 1021.21 1020.94 1020.70 1020.51 1020.37 1020.28 1020.24 1020.22 1020.22 1020.20 1020.15 1020.07 1019.95
1023.35 1023.16 1022.97 1022.83 1022.77 1022.79 1022.90 1023.09 1023.32 1023.55 1023.75 1023.90 1023.98 1023.99 1023.93 1023.83 1023.69 1023.56 1023.44 1023.35 1023.28 1023.22 1023.17 1023.10 1022.99 1022.83 1022.61 1022.33 1022.00 1021.65 1021.29 1020.94 1020.64 1020.40 1020.21 1020.09 1020.01 1019.96 1019.91 1019.85 1019.76 1019.63 1019.46
1024.04 1023.91 1023.78 1023.67 1023.63 1023.67 1023.81 1024.01 1024.25 1024.49 1024.70 1024.85 1024.92 1024.90 1024.80 1024.64 1024.45 1024.26 1024.08 1023.93 1023.81 1023.72 1023.64 1023.54 1023.40 1023.21 1022.96 1022.65 1022.28 1021.89 1021.48 1021.09 1020.74 1020.45 1020.21 1020.03 1019.88 1019.77 1019.65 1019.51 1019.35 1019.14 1018.89
1024.65 1024.61 1024.53 1024.46 1024.45 1024.51 1024.65 1024.86 1025.10 1025.35 1025.56 1025.70 1025.75 1025.71 1025.58 1025.38 1025.14 1024.89 1024.66 1024.46 1024.30 1024.17 1024.05 1023.93 1023.78 1023.58 1023.32 1023.00 1022.62 1022.21 1021.79 1021.37 1020.98 1020.64 1020.35 1020.10 1019.88 1019.67 1019.46 1019.23 1018.95 1018.64 1018.29
1025.17 1025.21 1025.19 1025.16 1025.17 1025.24 1025.38 1025.58 1025.81 1026.05 1026.26 1026.39 1026.43 1026.37 1026.22 1026.00 1025.73 1025.44 1025.17 1024.93 1024.73 1024.57 1024.43 1024.29 1024.14 1023.94 1023.69 1023.37 1023.01 1022.60 1022.17 1021.73 1021.32 1020.93 1020.58 1020.26 1019.96 1019.66 1019.34 1018.99 1018.60 1018.17 1017.71
1025.57 1025.69 1025.73 1025.74 1025.76 1025.82 1025.95 1026.13 1026.35 1026.57 1026.76 1026.89 1026.93 1026.87 1026.72 1026.48 1026.20 1025.90 1025.61 1025.34 1025.12 1024.94 1024.78 1024.64 1024.48 1024.29 1024.04 1023.75 1023.39 1022.99 1022.56 1022.12 1021.68 1021.25 1020.85 1020.45 1020.06 1019.66 1019.24 1018.77 1018.27 1017.73 1017.16
1025.84 1026.04 1026.13 1026.17 1026.20 1026.26 1026.37 1026.52 1026.71 1026.92 1027.09 1027.21 1027.25 1027.20 1027.06 1026.84 1026.57 1026.27 1025.98 1025.71 1025.48 1025.28 1025.11 1024.96 1024.80 1024.61 1024.37 1024.08 1023.73 1023.34 1022.90 1022.44 1021.97 1021.50 1021.04 1020.57 1020.10 1019.61 1019.09 1018.54 1017.94 1017.31 1016.65
1025.99 1026.25 1026.40 1026.47 1026.51 1026.57 1026.65 1026.78 1026.95 1027.12 1027.28 1027.40 1027.44 1027.41 1027.29 1027.09 1026.84 1026.57 1026.28 1026.02 1025.78 1025.58 1025.41 1025.24 1025.07 1024.87 1024.63 1024.33 1023.97 1023.56 1023.10 1022.62 1022.11 1021.59 1021.06 1020.53 1020.00 1019.44 1018.85 1018.23 1017.57 1016.87 1016.16
1026.05 1026.37 1026.57 1026.67 1026.73 1026.79 1026.86 1026.97 1027.11 1027.26 1027.40 1027.50 1027.55 1027.52 1027.42 1027.25 1027.03 1026.78 1026.51 1026.26 1026.02 1025.82 1025.63 1025.44 1025.25 1025.03 1024.76 1024.43 1024.05 1023.61 1023.11 1022.58 1022.03 1021.45 1020.88 1020.29 1019.70 1019.09 1018.46 1017.81 1017.12 1016.41 1015.67
1026.06 1026.43 1026.67 1026.82 1026.90 1026.97 1027.04 1027.13 1027.25 1027.37 1027.49 1027.57 1027.61 1027.59 1027.49 1027.34 1027.13 1026.89 1026.64 1026.39 1026.15 1025.93 1025.72 1025.52 1025.29 1025.03 1024.73 1024.36 1023.93 1023.44 1022.90 1022.32 1021.71 1021.09 1020.47 1019.84 1019.21 1018.58 1017.94 1017.28 1016.60 1015.90 1015.18
1026.05 1026.47 1026.75 1026.94 1027.06 1027.14 1027.22 1027.30 1027.39 1027.49 1027.57 1027.63 1027.64 1027.60 1027.50 1027.34 1027.14 1026.90 1026.65 1026.39 1026.14 1025.90 1025.67 1025.43 1025.16 1024.86 1024.51 1024.10 1023.62 1023.08 1022.49 1021.86 1021.21 1020.55 1019.88 1019.23 1018.59 1017.96 1017.33 1016.69 1016.04 1015.37 1014.69
Thickness
5726 5729 5729 5730 5730 5730 5730 5728 5726 5725 5724 5723 5722 5721 5720 5720 5718 5717 5716 5716 5716 5716 5716 5717 5715 5714 5714 5713 5714 5712 5710 5710 5711 5709 5707 5706 5706 5706 5705 5707 5708 5708 5708
5724 5725 5727 5727 5728 5728 5728 5727 5725 5724 5723 5721 5721 5720 5718 5718 5716 5714 5714 5714 5714 5714 5715 5715 5714 5712 5711 5711 5711 5709 5710 5709 5709 5709 5706 5703 5702 5702 5703 5704 5704 5705 5705
5724 5725 5726 5727 5727 5726 5726 5725 5724 5723 5721 5720 5719 5717 5716 5716 5716 5713 5712 5711 5711 5711 5712 5712 5712 5710 5711 5710 5708 5708 5707 5706 5707 5709 5708 5704 5700 5699 5700 5701 5702 5702 5702
5726 5726 5726 5726 5726 5726 5726 5725 5723 5723 5721 5720 5718 5717 5715 5714 5713 5713 5712 5711 5709 5709 5709 5709 5709 5709 5709 5707 5708 5707 5707 5705 5706 5706 5706 5707 5705 5702 5698 5698 5699 5699 5699
5727 5726 5727 5727 5727 5726 5725 5724 5723 5722 5720 5719 5717 5716 5715 5714 5713 5712 5710 5711 5709 5707 5707 5707 5707 5707 5706 5705 5704 5704 5705 5705 5705 5705 5705 5704 5703 5705 5701 5696 5696 5697 5697
5729 5729 5729 5727 5726 5725 5723 5722 5721 5719 5717 5716 5715 5714 5713 5711 5710 5709 5709 5709 5708 5707 5705 5705 5705 5704 5704 5703 5702 5702 5701 5702 5702 5703 5703 5703 5702 5700 5700 5698 5695 5695 5695
5732 5729 5727 5725 5724 5723 5721 5721 5719 5717 5716 5715 5714 5714 5712 5711 5710 5710 5708 5708 5707 5706 5705 5704 5703 5702 5701 5699 5699 5699 5699 5699 5698 5699 5700 5700 5700 5700 5700 5699 5696 5694 5694
5734 5731 5729 5727 5725 5723 5721 5720 5719 5717 5715 5714 5714 5713 5712 5710 5710 5709 5708 5708 5707 5705 5704 5702 5701 5699 5698 5697 5695 5696 5695 5696 5696 5695 5695 5696 5696 5697 5697 5697 5695 5693 5693
5734 5732 5730 5729 5727 5724 5722 5720 5718 5716 5715 5713 5712 5711 5711 5709 5708 5707 5707 5706 5705 5703 5702 5701 5699 5698 5696 5694 5693 5692 5692 5692 5693 5693 5693 5693 5693 5693 5693 5694 5694 5693 5690
5735 5732 5730 5728 5727 5725 5723 5720 5718 5717 5714 5712 5711 5709 5708 5707 5706 5706 5705 5704 5703 5701 5700 5700 5698 5696 5694 5692 5690 5690 5688 5689 5688 5688 5690 5689 5691 5690 5690 5690 5691 5691 5689
5737 5734 5731 5729 5727 5725 5722 5719 5717 5715 5713 5712 5710 5708 5707 5705 5705 5704 5703 5702 5701 5699 5698 5697 5696 5694 5692 5690 5687 5687 5686 5687 5687 5687 5687 5686 5686 5687 5687 5687 5687 5687 5686
5737 5735 5732 5729 5726 5723 5721 5719 5717 5715 5712 5711 5709 5708 5706 5704 5703 5702 5701 5700 5699 5697 5696 5695 5693 5692 5689 5688 5686 5684 5684 5684 5684 5684 5684 5684 5683 5682 5683 5683 5683 5682 5682
5734 5733 5730 5727 5725 5722 5721 5719 5717 5715 5712 5710 5708 5707 5706 5704 5702 5701 5700 5698 5697 5695 5693 5692 5690 5688 5687 5685 5684 5683 5682 5682 5682 5682 5682 5682 5681 5680 5680 5679 5680 5678 5678
5733 5731 5728 5727 5725 5723 5721 5719 5717 5715 5712 5709 5707 5706 5705 5703 5701 5700 5697 5696 5695 5693 5691 5689 5687 5685 5684 5683 5682 5680 5680 5680 5680 5679 5679 5679 5678 5678 5677 5676 5675 5674 5673
5731 5730 5727 5727 5724 5722 5721 5719 5717 5715 5712 5709 5706 5705 5704 5702 5699 5696 5694 5693 5690 5689 5687 5686 5684 5682 5680 5679 5678 5678 5677 5677 5677 5676 5675 5674 5673 5671 5671 5671 5671 5669 5668
5731 5731 5729 5727 5725 5724 5722 5719 5716 5714 5711 5708 5705 5703 5701 5699 5696 5693 5691 5689 5686 5685 5683 5681 5679 5678 5676 5673 5671 5672 5674 5675 5674 5673 5672 5671 5668 5666 5664 5662 5661 5661 5662
5732 5731 5731 5728 5727 5726 5723 5719 5716 5714 5710 5707 5704 5700 5698 5695 5693 5691 5688 5685 5683 5680 5678 5677 5675 5674 5672 5669 5667 5667 5669 5671 5671 5670 5669 5667 5666 5662 5663 5659 5656 5655 5653
5732 5731 5731 5729 5728 5727 5723 5720 5716 5712 5709 5706 5702 5698 5695 5692 5690 5687 5684 5682 5681 5678 5675 5674 5673 5671 5669 5666 5664 5663 5665 5667 5667 5666 5665 5664 5662 5659 5658 5657 5655 5654 5652
5734 5732 5731 5729 5727 5724 5721 5717 5713 5710 5706 5703 5700 5696 5693 5690 5686 5683 5681 5679 5677 5675 5673 5671 5669 5668 5666 5663 5661 5659 5662 5663 5662 5661 5659 5658 5656 5652 5649 5649 5649 5648 5646
5732 5730 5728 5727 5723 5721 5718 5714 5711 5707 5703 5700 5698 5695 5692 5688 5684 5682 5679 5677 5674 5672 5670 5668 5667 5666 5664 5660 5657 5655 5658 5658 5657 5655 5654 5649 5648 5645 5642 5642 5642 5641 5640
5727 5725 5723 5721 5719 5717 5714 5711 5708 5705 5703 5699 5695 5692 5689 5685 5682 5678 5676 5673 5671 5668 5667 5665 5663 5662 5660 5657 5653 5650 5652 5652 5652 5650 5648 5645 5640 5637 5635 5633 5634 5633 5631
5721 5720 5718 5715 5714 5713 5710 5707 5704 5703 5700 5695 5691 5688 5685 5681 5678 5674 5671 5670 5667 5664 5662 5661 5660 5658 5656 5652 5649 5646 5644 5644 5644 5643 5641 5638 5633 5630 5627 5625 5624 5621 5619
5717 5715 5713 5710 5709 5707 5706 5703 5700 5698 5695 5690 5687 5684 5681 5677 5674 5670 5667 5665 5662 5661 5659 5657 5656 5654 5651 5648 5643 5640 5638 5635 5634 5634 5631 5628 5624 5621 5620 5617 5615 5612 5612
5711 5710 5708 5705 5703 5702 5700 5698 5696 5693 5690 5686 5683 5680 5676 5673 5669 5666 5664 5661 5658 5656 5655 5653 5650 5648 5646 5643 5640 5636 5632 5628 5626 5624 5622 5618 5616 5613 5611 5610 5608 5606 5604
5705 5704 5702 5700 5698 5696 5694 5692 5690 5688 5685 5682 5679 5675 5672 5668 5664 5661 5657 5655 5653 5651 5648 5647 5645 5642 5640 5636 5631 5629 5627 5624 5620 5617 5615 5613 5611 5609 5607 5604 5602 5598 5596
5699 5697 5695 5693 5692 5691 5688 5686 5684 5682 5680 5677 5674 5669 5666 5662 5659 5655 5650 5645 5643 5640 5638 5636 5634 5633 5629 5625 5621 5618 5615 5612 5608 5606 5607 5606 5604 5601 5598 5596 5593 5590 5586